Location: Azul
(36.7830°S, 59.8500°W)
Time: 01:46:56
(UTC-03:00)

HuskySat-1 - Pass Details

Date: 30 October 2021
Orbit: 443 x 456 km, 51.6° (Epoch: 04 December)

Event Time Altitude Azimuth Distance (km) Brightness Sun altitude
Rises 20:46:24 0° 268° (W) 2,495 ? -14.6°
Reaches altitude 10° 20:49:08 10° 247° (WSW) 1,625 ? -15.1°
Maximum altitude 20:51:37 17° 205° (SSW) 1,256 ? -15.5°
Drops below altitude 10° 20:54:06 10° 162° (SSE) 1,631 ? -15.9°
Sets 20:56:51 0° 141° (SE) 2,510 ? -16.4°
